www.pogodaiklimat.ru

Погода и климат >> Архив погоды >> Парагвай >> Сан Хуан Батистута


ПОГОДА в Сан Хуан Батистута

  • Прогноз погоды в Сан Хуан Батистута
  • Монитор погоды в Сан Хуан Батистута

АРХИВ ПОГОДЫ в Сан Хуан Батистута

Время (UTC), дата Ветер
(напр.,м/с)
 
Видим.   Явления Облачность Т
(С)
Тd
(С)
f
(%)
Тe
(С)
Тes
(С)
Комфортность P
(гПа)
Po
(гПа)
Тmin
(С)
Tmax
(С)
R
(мм)
R24
(мм)
S
(см)
12 15.08 ЮВ 1 20 км ясно +11.0 +1.5 52 +11 +15 1026.6 1010.5 +6.0
15 15.08 В 3 20 км ясно +19.2 +6.9 45 +20 +30 1023.6 1007.7
18 15.08 С 3 20 км 4/0
[Cs]
+23.0 +14.5 59 +27 +33 душно 1019.7 1004.4
21 15.08 В 3 20 км ясно +20.6 +13.3 63 +23 +23 комфорт 1021.1 1004.9
03 16.08 СВ 3 20 км ясно +14.0 +6.2 59 +13 +13 1021.0 1005.5
12 16.08 С 2 20 км ясно +19.0 +14.5 75 +21 +24 комфорт 1022.2 1006.2 +8.0
15 16.08 С 5 20 км 10/0 1500 м
[Ac und]
+25.0 +17.6 64 +29 +31 душно 1020.0 1004.2
18 16.08 С 6 20 км 5/0
[Cs]
+27.0 +19.3 63 +33 +36 очень
душно
1015.5 1000.4
21 16.08 В 3 20 км ясно +28.8 +11.9 35 +30 +30 жарко 1011.2 996.3
00 17.08 В 3 20 км ясно +23.2 +14.5 58 +27 +27 душно 1011.5 996.3 +31.5
03 17.08 СВ 3 20 км ясно +21.0 +19.4 91 +26 +26 душно 1012.5 997.3
06 17.08 С 4 20 км ясно +18.0 +15.4 85 +18 +18 1013.0 997.6
12 17.08 С 6 20 км 10/0 1500 м
[Ac und]
+20.0 +16.2 79 +22 +23 комфорт 1013.4 998.0 +15.0
15 17.08 С 4 20 км 10/0 1000 м
[Ac und]
+27.0 +17.8 57 +31 +34 душно 1011.4 996.0
18 17.08 С 4 20 км 8/0 1500 м
[Ac und Cs]
+29.0 +14.0 40 +31 +34 жарко 1007.8 993.0
21 17.08 С 4 20 км 8/0 1500 м
[Ac und Cs]
+27.4 +15.2 47 +30 +30 жарко 1007.4 992.0
00 18.08 С 1 20 км 5/0 1500 м
[Ac und]
+24.0 +15.7 60 +27 +27 жарко 1007.1 992.0 +30.0
06 18.08 С 2 20 км 5/0 1500 м
[Ac und]
+22.0 +16.4 71 +26 +26 душно 1006.4 991.0
09 18.08 С 2 20 км ясно +20.0 +15.4 75 +23 +23 комфорт 1006.6 991.2
15 18.08 Ю 4 20 км 6/0 1500 м
[Ac und]
+22.0 +17.1 74 +26 +31 душно 1011.8 996.6
18 18.08 Ю 8 20 км 10/10 400 м
[Sc]
+19.0 +15.6 81 +20 +20 1014.8 999.6
21 18.08 Ю 6 20 км 10/8 400 м
[Sc diur, vesp Ac und]
+19.2 +11.6 61 +20 +20 1015.7 1000.2
00 19.08 Ю 8 20 км 8/8 400 м
[Sc diur, vesp]
+17.4 +11.1 66 +16 +16 1018.8 1003.2 +24.0
03 19.08 Ю 6 20 км 10/10 400 м
[Sc]
+15.0 +7.3 60 +13 +13 1019.9 1004.2
15 19.08 Ю 4 20 км ясно +16.0 +5.6 50 +15 +24 1021.1 1005.4
18 19.08 Ю 4 20 км ясно +19.4 +3.8 36 +20 +26 1019.9 1004.4
21 19.08 Ю 4 20 км ясно +19.2 +11.4 61 +20 +20 1019.8 1004.3
00 20.08 Ю 3 20 км ясно +13.2 +6.3 63 +12 +12 1021.9 1006.0 +31.0
03 20.08 Ю 2 20 км ясно +11.0 +10.6 97 +10 +10 1023.2 1007.3
09 20.08 ЮВ 2 20 км ясно +7.6 +3.5 75 +6 +6 1023.2 1008.0
12 20.08 штиль 0 20 км ясно +11.0 +7.6 80 +10 +15 1023.2 1008.0 +7.0
15 20.08 штиль 0 20 км ясно +17.0 +6.9 51 +17 +35 опасность
простуды
1023.2 1007.5
18 20.08 Ю 3 20 км ясно +23.2 +7.3 36 +24 +32 комфорт 1022.0 1006.7
21 20.08 Ю 3 20 км ясно +20.2 +12.4 61 +22 +23 комфорт 1021.0 1005.5
00 21.08 Ю 3 20 км ясно +15.2 +7.0 58 +15 +15 1022.2 1006.4 +23.5
03 21.08 Ю 3 20 км ясно +14.0 +6.2 59 +13 +13 1024.0 1008.2
06 21.08 штиль 0 20 км ясно +12.0 +9.6 85 +11 +11 1023.6 1008.6
09 21.08 штиль 0 20 км ясно +11.0 +7.2 77 +10 +10 1023.6 1008.6
12 21.08 штиль 0 20 км ясно +13.0 +10.6 85 +13 +17 1023.9 1009.0 +10.0
15 21.08 штиль 0 20 км ясно +24.4 +15.3 57 +27 +45 жарко 1021.9 1007.0
18 21.08 Ю 3 20 км ясно +24.2 +3.2 25 +23 +31 комфорт 1022.1 1006.8
21 21.08 ЮВ 2 20 км ясно +22.0 +6.2 36 +23 +23 комфорт 1020.4 1005.0
00 22.08 Ю 3 20 км ясно +16.6 +7.2 54 +16 +16 1021.0 1005.3 +25.0
03 22.08 ЮВ 3 20 км ясно +13.0 +4.5 56 +12 +12 1022.1 1006.4

 

Местоположение метеостанции Сан Хуан Батистута (Парагвай): широта -26.66 долгота -57.15 высота над уровнем моря 126 м.

В архиве по умолчанию представлена погода в Сан Хуан Батистута за последнюю неделю. Архивные данные за месяц целиком и за предыдущие месяцы, начиная с января 2011 года, Вы можете получить, выбрав интересующий диапазон дат из раскрывающегося списка и нажав кнопку "Ввод!".


*Определитесь, кто Вы:
робот инопланетянин человек

Внимание! Время в таблицах - всемирное. Для получения местного времени необходимо прибавить поправку, которая равна -4 ч.

Смотрите также архив погоды в соседних городах и на ближайших метеорологических станциях:

Погода в Куйкуйо (Парагвай) (52 км)
Погода в Каасапе (Парагвай) (96 км)
Погода в Парагуари (Парагвай) (115 км)
Погода в Пиларе (Парагвай) (117 км)
Погода в Формосе (Аргентина) (119 км)
Погода в Вильяррике (Парагвай) (124 км)
Погода в Посадасе (Аргентина) (141 км)
Погода в Энкарнасьоне (Парагвай) (149 км)
Погода в Коронель-Овьедо (Парагвай) (156 км)
Погода в Асунсьоне (Парагвай) (161 км)

Пояснения к столбцам:

Ветер - указаны скорость ветра в м/с - средняя за 10 мин, порывы в срок и между сроками (в фигурных скобках) и направление, откуда дует ветер: С - северный, СВ - северо-восточный, В - восточный, ЮВ - юго-восточный, Ю - южный, ЮЗ - юго-западный, З - западный, СЗ - северо-западный.
Видимость - горизонтальная дальность видимости в метрах или километрах. При видимости от 1 до 10 км при отсутствии осадков обычно наблюдается дымка, при ухудшении видимости до 1 км и менее - туман. В сухую погоду видимость может ухудшаться дымом, пылью или мглою.
Явления - указаны атмосферные явления, наблюдавшиеся в срок или в последний час перед сроком; фигурными скобками обозначены явления, наблюдавшиеся между сроками (за 1-3 часа до срока); квадратными скобками обозначены град или гололедные отложения с указанием их диаметра в мм.
Облачность - указаны через наклонную черту общая и нижняя облачность в баллах и высота нижней границы облаков в метрах; квадратными скобками обозначены формы облаков: Ci - перистые, Cs - перисто-слоистые, Cc - перисто-кучевые, Ac - высококучевые, As - высокослоистые, Sc - слоисто-кучевые, Ns - слоисто-дождевые, Cu - кучевые, Cb - кучево-дождевые. Подробнее классификацию облаков см. в Атласе облаков (PDF).
T - Температура воздуха - температура, измеренная на высоте 2 м над землей.
Td - Температура точки росы - температура, при понижении до которой содержащийся в воздухе водяной пар достигнет насыщения.
f - Относительная влажность воздуха - влажноcть воздуха, измеренная на высоте 2 м над землей.
Te - Эффективная температура - температура, которую ощущает одетый по сезону человек в тени. Характеристика душности погоды. При расчете учитывается влияние влажности воздуха и скорости ветра на теплоощущения человека.
Tes - Эффективная температура на солнце - температура, которую ощущает человек, с поправкой на солнечный нагрев. Характеристика знойности погоды. Зависит от высоты солнца над горизонтом, облачности и скорости ветра. Ночью, в пасмурную погоду, а также при ветре 12 м/с и более поправка равна нулю.
P - Атмосферное давление - приведенное к уровню моря атмосферное давление.
Po - Атмосферное давление - измеренное на уровне метеостанции атмосферное давление.
Tmin - Минимальная температура - минимум температуры воздуха на высоте 2 м над землей.
Tmax - Максимальная температура - максимум температуры воздуха на высоте 2 м над землей.
R - Количество осадков - Количество выпавших осадков за период времени, мм. При наведении курсора мыши на число - период времени, за который выпало указанное количество осадков.
R24 - Количество осадков - Количество выпавших осадков за 24 часа, мм.
S - Снежный покров - Высота снежного покрова, см. При наведении курсора мыши на число - состояние снежного покрова и степень покрытия местности в баллах.